Winnemucca, NV

5:27 AM PDT on May 26, 2017 (GMT -0700)
Winnemucca Municipal

Weather History for KWMC - October, 2013

Change the Weather History Date:

Saturday, October 12, 2013

  Actual Average Record
Temperature  
Mean Temperature 45 °F 50 °F  
Max Temperature 65 °F 69 °F 85 °F (1964)
Min Temperature 25 °F 30 °F 16 °F (1969)
Degree Days  
Heating Degree Days 20 15  
Month to date heating degree days 218 158  
Since 1 July heating degree days 366 362  
Cooling Degree Days 0 0  
Month to date cooling degree days 0 0  
Year to date cooling degree days 762 541  
Moisture  
Dew Point 25 °F    
Average Humidity 50    
Maximum Humidity 82    
Minimum Humidity 18    
Precipitation  
Precipitation 0.01 in 0.02 in 0.35 in (1925)
Month to date precipitation 0.14 0.24  
Year to date precipitation 3.20 6.04  
Snow  
Snow 0.00 in 0.00 in 3.40 in (1879)
Month to date snowfall 0.0 0.1  
Since 1 July snowfall T 0.1  
Since 1 September snowfall 0.0 0.1  
Snow Depth 0.00 in    
Sea Level Pressure  
Sea Level Pressure 29.92 in    
Wind  
Wind Speed 6 mph (WSW)    
Max Wind Speed 22 mph    
Max Gust Speed 30 mph    
Visibility 10 miles    
Events Rain    
T = Trace of Precipitation, MM = Missing Value Source: NWS Daily Summary

Daily Weather History Graph

Daily Weather History Graph

Search for Another Location

Airport or City:

Trip Planner

Search our weather history database for the weather conditions in past years. The results will help you decide how hot, cold, wet, or windy it might be!

Date:

Astronomy

Oct. 12, 2013 Rise Set
Actual Time 6:59 AM PDT 6:14 PM PDT
Civil Twilight 6:32 AM PDT 6:42 PM PDT
Nautical Twilight 6:00 AM PDT 7:14 PM PDT
Astronomical Twilight 5:28 AM PDT 7:45 PM PDT
Moon 2:30 PM PDT (10/12) 12:05 AM PDT (10/12)
Length of Visible Light 12h 10m
Length of Day
11h 15m
First Quarter, 60% of the Moon is Illuminated
Oct 12
First Quarter
Oct 18
Full
Oct 26
Last Quarter
Nov 3
New
Nov 9
First Quarter

Hourly Weather History & Observations

Time (PDT) Temp. Windchill Dew Point Humidity Pressure Visibility Wind Dir Wind Speed Gust Speed Precip Events Conditions
12:56 AM 37.0 °F 34.5 °F 26.1 °F 65% 29.99 in 10.0 mi East 3.5 mph - N/A   Clear
1:56 AM 32.0 °F - 24.1 °F 73% 30.00 in 10.0 mi Calm Calm - N/A   Clear
2:56 AM 32.0 °F 27.5 °F 23.0 °F 69% 29.98 in 10.0 mi SE 4.6 mph - N/A   Clear
3:56 AM 28.0 °F - 21.0 °F 75% 29.98 in 10.0 mi Calm Calm - N/A   Clear
4:56 AM 30.0 °F 25.2 °F 23.0 °F 75% 29.97 in 10.0 mi East 4.6 mph - N/A   Clear
5:56 AM 27.0 °F 21.6 °F 21.0 °F 78% 29.99 in 10.0 mi ESE 4.6 mph - N/A   Clear
6:56 AM 26.1 °F 21.9 °F 21.0 °F 81% 30.01 in 10.0 mi SSE 3.5 mph - N/A   Clear
7:56 AM 32.0 °F - 23.0 °F 69% 30.01 in 10.0 mi Calm Calm - N/A   Clear
8:56 AM 39.9 °F - 24.1 °F 53% 30.01 in 10.0 mi Calm Calm - N/A   Clear
9:56 AM 50.0 °F - 24.1 °F 36% 29.97 in 10.0 mi Calm Calm - N/A   Clear
10:56 AM 57.0 °F - 23.0 °F 27% 29.94 in 10.0 mi Calm Calm - N/A   Clear
11:56 AM 60.1 °F - 24.1 °F 25% 29.91 in 10.0 mi Variable 4.6 mph - N/A   Clear
12:56 PM 62.1 °F - 24.1 °F 23% 29.87 in 10.0 mi Variable 3.5 mph - N/A   Clear
1:56 PM 64.9 °F - 24.1 °F 21% 29.84 in 10.0 mi SSW 9.2 mph - N/A   Clear
2:56 PM 64.0 °F - 19.9 °F 18% 29.83 in 10.0 mi SW 11.5 mph 21.9 mph N/A   Mostly Cloudy
3:56 PM 63.0 °F - 24.1 °F 23% 29.83 in 10.0 mi WNW 4.6 mph - N/A   Mostly Cloudy
4:56 PM 61.0 °F - 21.0 °F 21% 29.83 in 10.0 mi West 11.5 mph - N/A   Partly Cloudy
5:56 PM 55.9 °F - 19.0 °F 24% 29.85 in 10.0 mi WSW 4.6 mph - N/A   Clear
6:56 PM 54.0 °F - 21.9 °F 29% 29.86 in 10.0 mi NW 4.6 mph - N/A   Scattered Clouds
7:56 PM 53.1 °F - 25.0 °F 34% 29.88 in 10.0 mi West 12.7 mph - N/A   Scattered Clouds
8:56 PM 51.1 °F - 33.1 °F 50% 29.89 in 10.0 mi West 17.3 mph 24.2 mph N/A   Overcast
9:56 PM 46.0 °F 39.3 °F 37.9 °F 73% 29.92 in 10.0 mi WSW 16.1 mph - 0.00 in Rain Light Rain
10:56 PM 45.0 °F 40.6 °F 37.9 °F 76% 29.91 in 10.0 mi NNW 8.1 mph - 0.01 in   Overcast
11:56 PM 42.1 °F 37.7 °F 37.0 °F 82% 29.91 in 10.0 mi WNW 6.9 mph - 0.00 in   Mostly Cloudy